Find Tachys

NORAD ID: 33314 Int'l Des: 2008-040 Owner: REYE Country: D operational
LEOCIRCULARRETROGRADESSO

Live-Position

3D-Globus wird geladen...

Über Tachys

Beschreibung wird geladen...

Nächste Überflüge

Passes for default location (London). Set your location on the main map for personalized predictions.

Höhenverlauf

Loading altitude history...

Zweizeiliger Elementsatz

1 33314U 08040C 26132.33620485 .00000822 00000-0 64588-4 0 9998
2 33314 97.4136 161.8127 0025383 304.6626 55.2208 15.03290418960279
Epoch: 12. Mai 2026 • Age: 10 hours

Aktueller Status

Höhe 569.3 km
Geschwindigkeit 7.57 km/s
Subsatellitenpunkt -1.50°S, 165.41°W
Startdatum 29. Aug. 2008
Alter 17.7 years
Typ other

Technische Details

Klassifizierung Payload
Masse 152.00 kg
Trockenmasse 140.00 kg
Gesamtmasse 152.00 kg
Länge 1.00 m
Durchmesser 0.80 m
Spannweite 1.00 m
Form Hept Cyl
Hersteller SSTL
Bus-Typ SSTL-150
Phasenstatus In Orbit
Besitzer/Staat REYE/D

Most Searched